Regional Weather Roundup
Issued by NWS Green Bay, WI

Home | Current Version | Previous Version | Graphics & Text | Print | Product List | Glossary Off
Versions: 1 2 3 4 5 6 7 8 9 10 11 12 13 14 15 16 17 18 19 20 21 22 23 24 25 26 27 28 29 30 31 32 33 34 35 36 37 38 39 40 41 42 43 44 45 46 47 48 49 50

000
ASUS43 KGRB 220711
RWRGRB

NORTH-CENTRAL AND NORTHEAST WISCONSIN REGIONAL WEATHER ROUNDUP
NATIONAL WEATHER SERVICE GREEN BAY WI
200 AM CDT TUE AUG 22 2017

WIZ005-009-010>012-018-019-220800-
NORTH CENTRAL WISCONSIN

CITY           SKY/WX    TMP DP  RH WIND       PRES   REMARKS
IRONWOOD       CLOUDY    56  55  97 N3        29.81R
MANITOWISH WTR HVY RAIN  62  62 100 NW8G21    29.77S
ARBOR VITAE    MOCLDY    65  63  95 W9        29.77F
EAGLE RIVER    RAIN      65  64  95 SW12G17   29.76F
LAND O LAKES   HVY RAIN  66  65  97 SW3       29.77F
RHINELANDER    CLOUDY    65  64  97 SW8       29.79F
PHILLIPS       CLOUDY    65  64  99 W7        29.79F
ANTIGO         MOCLDY    63  63  99 W9        29.81F
TOMAHAWK         N/A     64  62  94 SW3       29.80F
MERRILL        CLOUDY    66  64  94 SW6       29.80F
$$

WIZ013-073-220800-
NORTHEAST WISCONSIN

CITY           SKY/WX    TMP DP  RH WIND       PRES   REMARKS
IRON MOUNTAIN  CLOUDY    68  64  87 SW6       29.73F
MARINETTE      CLOUDY    70  65  84 SW6       29.75F
OCONTO         MOCLDY    69  64  83 W8        29.76F
$$

WIZ017-030-035>037-045-220800-
CENTRAL WISCONSIN

CITY           SKY/WX    TMP DP  RH WIND       PRES   REMARKS
MEDFORD        CLOUDY    64  62  94 W7        29.81F
WAUSAU         CLOUDY    66  62  87 SW9       29.80F
MOSINEE        CLOUDY    64  63  94 SW9       29.84S
MARSHFIELD     CLOUDY    66  61  84 SW9       29.82F
WISC RAPIDS    CLOUDY    65  63  93 W7        29.84F
STEVENS POINT  CLOUDY    64  63  97 W8        29.83S
WAUPACA        MOCLDY    69  65  87 W7        29.81F
SHAWANO        MOCLDY    69  63  80 W8        29.78F
CLINTONVILLE   MOCLDY    68  61  77 W7        29.80F
WAUTOMA        CLOUDY    66  64  93 W8        29.84F
$$

WIZ038-039-048-051-220800-
FOX VALLEY

CITY           SKY/WX    TMP DP  RH WIND       PRES   REMARKS
NWS GREEN BAY  CLOUDY    70  67  90 SW7       29.78F
APPLETON       CLOUDY    68  61  77 W8        29.79F
OSHKOSH        CLOUDY    69  65  86 W6        29.80F
FOND DU LAC    CLOUDY    71  64  78 W7        29.82F
$$

WIZ022-050-052-220800-
EAST CENTRAL WISCONSIN

CITY           SKY/WX    TMP DP  RH WIND       PRES   REMARKS
EPHRAIM        CLOUDY    70  65  85 W5        29.74F
WASHINGTON ISL CLOUDY    69  67  92 SW8       29.73F
STURGEON BAY   CLOUDY    70  67  90 SW8       29.77F
MANITOWOC        N/A    N/A N/A N/A MISG        N/A
SHEBOYGAN      CLOUDY    71  70  96 W6        29.80F
$$

LMZ563-521-522-541>543-220800-
LAKESHORE

STATION/POSITION TIME  TEMP    WIND        PRES    VSBY  WAVE
                       AIR SEA DIR/SP/G                  HT/PER
                 (UTC) (F)     (DEG/KT/KT) (MB)    (MI)  (FT/S)
SHEBOYGAN LKSHOR 0700   73     270/  8/ 10 1008.5F
KEWAUNEE LKSHORE 0648          260/  5/  7 1007.7F
NORTHPORT PIER   0640   71     240/  2/  7 1007.1F
N MID LAKE BUOY  0650   69 68  210/ 16/ 19 1006.9F         2/ 4
S GREEN BAY BUOY 0700   72 72  220/ 10/ 14 1007.7
SISTER BAY LKSHO 0703   72     250/ 11/ 14   N/A
MENOMINEE LKSHOR 0648          230/  8/ 11 1007.2F
$$



USA.gov is the U.S. government's official web portal to all federal, state and local government web resources and services.